Overview Statistics Trail Chart Weather Telemetry Raw packets
 

This is the latest recevied weather packets stored in our database for station/object KD4EG. If no packets are shown the sender has not sent any weather packets the latest 10 day(s).

<< 1 2 3 4 >>
Time Temp. Humidity Pressure Rain* Wind** Luminosity Snow
1788656289 27.78° C 63% 1014.4 hPa 0 mm - 0 W/m² -
1788655987 27.78° C 62% 1014.4 hPa 0 mm - 0 W/m² -
1788655686 27.78° C 62% 1014.6 hPa 0 mm - 0 W/m² -
1788655381 27.78° C 61% 1014.3 hPa 0 mm - 0 W/m² -
1788655076 27.78° C 61% 1014.2 hPa 0 mm - 0 W/m² -
1788654772 27.78° C 61% 1014 hPa 0 mm - 0 W/m² -
1788654467 28.33° C 60% 1014.1 hPa 0 mm - 0 W/m² -
1788654167 28.33° C 61% 1014 hPa 0 mm - 0 W/m² -
1788653862 28.33° C 59% 1014 hPa 0 mm - 0 W/m² -
1788653557 28.89° C 59% 1014 hPa 0 mm - 0 W/m² -
1788653253 28.89° C 59% 1014.1 hPa 0 mm - 0 W/m² -
1788652953 28.89° C 59% 1014 hPa 0 mm - 0 W/m² -
1788652653 28.89° C 58% 1013.8 hPa 0 mm - 0 W/m² -
1788652347 28.89° C 58% 1013.5 hPa 0 mm - 0 W/m² -
1788652043 29.44° C 57% 1013.7 hPa 0 mm - 0 W/m² -
1788651738 29.44° C 58% 1013.6 hPa 0 mm - 1 W/m² -
1788651433 29.44° C 57% 1013.6 hPa 0 mm - 3 W/m² -
1788651132 29.44° C 58% 1013.8 hPa 0 mm - 5 W/m² -
1788650827 30° C 57% 1013.7 hPa 0 mm - 8 W/m² -
1788650523 30° C 57% 1013.6 hPa 0 mm - 12 W/m² -
1788650219 30° C 57% 1013.8 hPa 0 mm - 15 W/m² -
1788649914 30.56° C 56% 1013.8 hPa 0 mm - 17 W/m² -
1788649610 30.56° C 55% 1013.9 hPa 0 mm - 23 W/m² -
1788649308 31.67° C 53% 1013.7 hPa 0 mm - 29 W/m² -
1788649007 31.67° C 54% 1013.8 hPa 0 mm - 33 W/m² -

* Rain latest hour (hover to see other rain measurements)
** Current wind speed in m/s (hover to see current wind gust speed)